When you browse on this site, cookies collect data to enhance your experience and personalize the content and advertising you see.
Visit our Privacy Policy to learn more. By continuing to use the site, you agree to this use of cookies and data.
  • en Suisse
  • Liste des pays
  • À 7 jours
  • Température de l'eau
  • Carte satellitaire
  • Carte météo
  • Widgets météo
  • user-avatar
    Se connecter

    Météo par heure à Suhl

    Ce jour, 27 Mai, Lundi

    Heure Température Précipitation Vent Pression Humidité
    00:00 +10°C° 0 mm 2 m/s 712 mmHg 89%
    01:00 +10°C° 0 mm 2 m/s 712 mmHg 90%
    02:00 +10°C° 0 mm 2 m/s 712 mmHg 92%
    03:00 +9°C° 0 mm 2 m/s 712 mmHg 94%
    04:00 +9°C° 0 mm 2 m/s 711 mmHg 96%
    05:00 +10°C° 0 mm 2 m/s 712 mmHg 92%
    06:00 +12°C° 0 mm 2 m/s 712 mmHg 88%
    07:00 +13°C° 0 mm 3 m/s 712 mmHg 83%
    08:00 +14°C° 0 mm 3 m/s 712 mmHg 78%
    09:00 +15°C° 0 mm 4 m/s 712 mmHg 72%
    10:00 +18°C° 0 mm 4 m/s 712 mmHg 67%
    11:00 +18°C° 0.1 mm 4 m/s 712 mmHg 68%
    12:00 +17°C° 0.1 mm 4 m/s 712 mmHg 70%
    13:00 +17°C° 0.1 mm 4 m/s 711 mmHg 71%
    14:00 +18°C° 0 mm 3 m/s 711 mmHg 71%
    15:00 +18°C° 0 mm 3 m/s 711 mmHg 70%
    16:00 +18°C° 0 mm 3 m/s 711 mmHg 69%
    17:00 +17°C° 0 mm 2 m/s 710 mmHg 74%
    18:00 +16°C° 0 mm 2 m/s 710 mmHg 78%
    19:00 +16°C° 0 mm 1 m/s 710 mmHg 83%
    20:00 +14°C° 0 mm 1 m/s 710 mmHg 88%
    21:00 +13°C° 0 mm 1 m/s 710 mmHg 92%
    22:00 +11°C° 0 mm 1 m/s 710 mmHg 97%
    23:00 +11°C° 0 mm 1 m/s 709 mmHg 97%

    Demain, 28 Mai, Mardi

    Heure Température Précipitation Vent Pression Humidité
    00:00 +11°C° 0 mm 1 m/s 709 mmHg 98%
    01:00 +10°C° 0 mm 1 m/s 709 mmHg 98%
    02:00 +10°C° 0 mm 1 m/s 709 mmHg 98%
    03:00 +10°C° 0 mm 1 m/s 709 mmHg 98%
    04:00 +10°C° 0 mm 1 m/s 709 mmHg 98%
    05:00 +11°C° 0 mm 1 m/s 709 mmHg 95%
    06:00 +11°C° 0 mm 1 m/s 709 mmHg 93%
    07:00 +12°C° 0 mm 1 m/s 709 mmHg 91%
    08:00 +12°C° 0.3 mm 1 m/s 709 mmHg 88%
    09:00 +13°C° 0.3 mm 1 m/s 709 mmHg 85%
    10:00 +13°C° 0.3 mm 1 m/s 710 mmHg 83%
    11:00 +14°C° 0.8 mm 1 m/s 710 mmHg 83%
    12:00 +14°C° 0.8 mm 1 m/s 710 mmHg 84%
    13:00 +14°C° 0.8 mm 1 m/s 710 mmHg 85%
    14:00 +14°C° 1 mm 1 m/s 710 mmHg 86%
    15:00 +13°C° 1 mm 1 m/s 710 mmHg 88%
    16:00 +13°C° 1 mm 1 m/s 710 mmHg 89%
    17:00 +13°C° 0.5 mm 1 m/s 710 mmHg 90%
    18:00 +12°C° 0.5 mm 1 m/s 711 mmHg 91%
    19:00 +11°C° 0.5 mm 0 m/s 711 mmHg 92%
    20:00 +11°C° 0.1 mm 1 m/s 712 mmHg 94%
    21:00 +10°C° 0.1 mm 1 m/s 712 mmHg 96%
    22:00 +10°C° 0.1 mm 1 m/s 713 mmHg 97%
    23:00 +9°C° 0.1 mm 1 m/s 713 mmHg 98%

    Après-demain, 29 Mai, Mercredi

    Heure Température Précipitation Vent Pression Humidité
    00:00 +9°C° 0.1 mm 1 m/s 713 mmHg 98%
    01:00 +8°C° 0.1 mm 2 m/s 714 mmHg 98%
    02:00 +8°C° 0.1 mm 2 m/s 714 mmHg 98%
    03:00 +8°C° 0.1 mm 2 m/s 714 mmHg 98%
    04:00 +8°C° 0.1 mm 2 m/s 715 mmHg 98%
    05:00 +8°C° 0.1 mm 3 m/s 715 mmHg 97%
    06:00 +7°C° 0.1 mm 3 m/s 716 mmHg 96%
    07:00 +7°C° 0.1 mm 3 m/s 716 mmHg 95%
    08:00 +8°C° 0 mm 3 m/s 716 mmHg 90%
    09:00 +9°C° 0 mm 3 m/s 717 mmHg 84%
    10:00 +10°C° 0 mm 3 m/s 717 mmHg 79%
    11:00 +11°C° 0 mm 3 m/s 717 mmHg 74%
    12:00 +12°C° 0 mm 3 m/s 718 mmHg 69%
    13:00 +13°C° 0 mm 3 m/s 718 mmHg 64%
    14:00 +15°C° 0 mm 2 m/s 718 mmHg 62%
    15:00 +15°C° 0 mm 2 m/s 717 mmHg 61%
    16:00 +16°C° 0 mm 2 m/s 717 mmHg 59%
    17:00 +15°C° 0 mm 2 m/s 717 mmHg 64%
    18:00 +14°C° 0 mm 2 m/s 717 mmHg 69%
    19:00 +14°C° 0 mm 1 m/s 717 mmHg 74%
    20:00 +12°C° 0 mm 1 m/s 717 mmHg 80%
    21:00 +10°C° 0 mm 1 m/s 717 mmHg 86%
    22:00 +9°C° 0 mm 1 m/s 718 mmHg 93%
    23:00 +8°C° 0 mm 2 m/s 718 mmHg 94%

    30 Mai, Jeudi

    Heure Température Précipitation Vent Pression Humidité
    00:00 +7°C° 0 mm 2 m/s 717 mmHg 95%
    01:00 +7°C° 0 mm 2 m/s 717 mmHg 96%
    02:00 +7°C° 0 mm 2 m/s 717 mmHg 96%
    03:00 +7°C° 0 mm 2 m/s 717 mmHg 97%
    04:00 +7°C° 0 mm 3 m/s 717 mmHg 97%
    05:00 +8°C° 0.1 mm 3 m/s 717 mmHg 94%
    06:00 +8°C° 0.1 mm 4 m/s 717 mmHg 92%
    07:00 +10°C° 0.1 mm 4 m/s 717 mmHg 89%
    08:00 +10°C° 0.2 mm 4 m/s 717 mmHg 90%
    09:00 +10°C° 0.2 mm 3 m/s 718 mmHg 92%
    10:00 +11°C° 0.2 mm 3 m/s 718 mmHg 93%
    11:00 +12°C° 0.1 mm 3 m/s 718 mmHg 89%
    12:00 +13°C° 0.1 mm 3 m/s 718 mmHg 85%
    13:00 +16°C° 0.1 mm 3 m/s 719 mmHg 81%
    14:00 +16°C° 0.3 mm 3 m/s 719 mmHg 83%
    15:00 +16°C° 0.3 mm 3 m/s 719 mmHg 85%
    16:00 +16°C° 0.3 mm 3 m/s 719 mmHg 87%
    17:00 +16°C° 0.4 mm 3 m/s 719 mmHg 89%
    18:00 +14°C° 0.4 mm 3 m/s 719 mmHg 92%
    19:00 +14°C° 0.4 mm 3 m/s 719 mmHg 94%
    20:00 +13°C° 0.1 mm 3 m/s 719 mmHg 95%
    21:00 +13°C° 0.1 mm 3 m/s 719 mmHg 97%
    22:00 +12°C° 0.1 mm 3 m/s 719 mmHg 98%
    23:00 +12°C° 0.2 mm 3 m/s 719 mmHg 98%

    31 Mai, Vendredi

    Heure Température Précipitation Vent Pression Humidité
    00:00 +12°C° 0.2 mm 3 m/s 719 mmHg 98%
    01:00 +12°C° 0.2 mm 3 m/s 719 mmHg 98%
    02:00 +12°C° 0.7 mm 3 m/s 719 mmHg 98%
    03:00 +12°C° 0.7 mm 3 m/s 718 mmHg 98%
    04:00 +12°C° 0.7 mm 3 m/s 718 mmHg 98%
    05:00 +12°C° 1 mm 4 m/s 718 mmHg 97%
    06:00 +12°C° 1 mm 4 m/s 718 mmHg 97%
    07:00 +12°C° 1 mm 4 m/s 718 mmHg 96%
    08:00 +12°C° 1 mm 4 m/s 718 mmHg 96%
    09:00 +12°C° 1 mm 4 m/s 718 mmHg 96%
    10:00 +12°C° 1 mm 4 m/s 718 mmHg 96%
    11:00 +13°C° 0.5 mm 4 m/s 719 mmHg 93%
    12:00 +14°C° 0.5 mm 4 m/s 719 mmHg 90%
    13:00 +15°C° 0.5 mm 5 m/s 720 mmHg 86%
    14:00 +14°C° 0.4 mm 5 m/s 720 mmHg 87%
    15:00 +12°C° 0.4 mm 5 m/s 720 mmHg 88%
    16:00 +10°C° 0.4 mm 5 m/s 720 mmHg 89%
    17:00 +11°C° 0.1 mm 4 m/s 721 mmHg 88%
    18:00 +10°C° 0.1 mm 4 m/s 721 mmHg 88%
    19:00 +8°C° 0.1 mm 4 m/s 721 mmHg 87%
    20:00 +8°C° 0 mm 3 m/s 722 mmHg 90%
    21:00 +7°C° 0 mm 2 m/s 722 mmHg 94%
    22:00 +7°C° 0 mm 1 m/s 723 mmHg 97%
    23:00 +7°C° 0 mm 1 m/s 723 mmHg 97%

    1 Juin, Samedi

    Heure Température Précipitation Vent Pression Humidité
    00:00 +6°C° 0 mm 1 m/s 724 mmHg 97%
    01:00 +5°C° 0 mm 1 m/s 724 mmHg 97%
    02:00 +5°C° 0 mm 1 m/s 724 mmHg 97%
    03:00 +4°C° 0 mm 1 m/s 724 mmHg 97%
    04:00 +4°C° 0 mm 1 m/s 724 mmHg 97%
    05:00 +5°C° 0 mm 1 m/s 725 mmHg 92%
    06:00 +7°C° 0 mm 1 m/s 725 mmHg 87%
    07:00 +9°C° 0 mm 1 m/s 725 mmHg 81%
    08:00 +11°C° 0 mm 1 m/s 726 mmHg 71%
    09:00 +14°C° 0 mm 1 m/s 726 mmHg 60%
    10:00 +16°C° 0 mm 1 m/s 726 mmHg 50%
    11:00 +18°C° 0 mm 1 m/s 726 mmHg 46%
    12:00 +18°C° 0 mm 1 m/s 726 mmHg 43%
    13:00 +18°C° 0 mm 2 m/s 726 mmHg 40%
    14:00 +18°C° 0 mm 2 m/s 725 mmHg 41%
    15:00 +18°C° 0 mm 2 m/s 725 mmHg 42%
    16:00 +18°C° 0 mm 2 m/s 725 mmHg 43%
    17:00 +17°C° 0 mm 2 m/s 724 mmHg 51%
    18:00 +15°C° 0 mm 2 m/s 724 mmHg 59%
    19:00 +14°C° 0 mm 2 m/s 724 mmHg 67%
    20:00 +13°C° 0 mm 1 m/s 724 mmHg 73%
    21:00 +11°C° 0 mm 1 m/s 724 mmHg 78%
    22:00 +9°C° 0 mm 1 m/s 724 mmHg 84%
    23:00 +9°C° 0 mm 1 m/s 724 mmHg 85%
    Voir plus